ONEWEB-0182, 48228

Orbit data source: Space-Track

ONEWEB-0182, 48228 is a payload satellite owned by One Web (NAA) (UK) in LEO that was launched on Sun, 25 Apr 2021 UTC via a SOYUZ-2-1B launch vehicle from the Vostochny Cosmodrome (VOSTO). Payload-class satellites include a variety of spacecraft equipped with specific instruments for various scientific and technological missions. These include communications satellites like Starlink; space stations such as the ISS; scientific satellites like the Hubble; Earth observation satellites from companies like Planet Labs, Umbra, and HawkEye 360; GPS; miniature CubeSats for education and research; and military/defense satellites.

Loading next visibility...
Identifier
48228, 2021-031U
Orbit
LEO
Country
Flag of UKUK
Related business
Manufacturer
One Web
Mission
Operational Commercial Communications
Bus & Motor
ARROW, Unknown motor
Mass
148 kg wet, ~140 kg dry
Launch date (UTC)
2021-04-25 (5 years ago)
Launch vehicle
SOYUZ-2-1B
Launch site
Vostochny Cosmodrome (VOSTO)
Object type
Payload
Rocket body
Debris
Shape & HBR
Trap Box + 2 Pan, 6.7 m
Radar Cross Section
3.464 m², Large (>1 m²)

Expand to show TLE details & history
Last TLE update: 13 hours ago

TLE from 13 hours ago
0 ONEWEB-0182
1 48228U 21031U   25306.35116512 -.00000064  00000-0 -20836-3 0  9995
2 48228  87.8998 334.9077 0001671  90.8006 269.3315 13.14504081218632
Epoch: 2025-11-02T08:25Z
TLE epoch observation values (Epoch: 2025-11-02T08:25:40.666Z)
Latitude
-0.00003°
Longitude
166.62012°
Altitude
1,208.694 km
Speed
7.25 km/s
True Right ascension
22h 19m 37s
True Declination
0° 00' 00"
Sunlit
Object was in daylight at epoch
Visualization orbit readout
Latitude
Unknown
Longitude
Unknown
Altitude
Unknown
Speed
Unknown
Apparent Right ascension
Unknown
Apparent Declination
Unknown
Sunlit
N/A
Visualization observer readout
Local Sidereal Time
16:52:21
Azimuth
Unknown
Elevation
Unknown
Doppler factor
Unknown
Orbital elements
Apogee altitude
1,204.166 km
Perigee altitude
1,201.632 km
Semi-major axis
7,581.036 km
Eccentricity
0.00017
Inclination
87.8998°
RAAN
334.9077°
Arg. of periapsis
90.8006°
True anomaly
269.31235°
Mean anomaly
269.3315°
Eccentric anomaly
269.32193°
Mean motion
3.28814 °/min
Orbital period
109.48 mins
BSTAR
-0.00020836
Loading maneuver chart data...
Computing Atmospheric mass density...
Loading historical data...
Loading historical data...
Loading historical data...
Loading historical data...
Loading historical data...
Loading historical data...
Loading historical data...

Documentation

Showing up to 5 results
|